Regional Weather Roundup
Issued by NWS

Home | Current Version | Previous Version | Graphics & Text | Print | Product List | Glossary On
Versions: 1 2 3 4 5 6 7 8 9 10 11 12 13 14 15 16 17 18 19 20 21 22 23 24 25 26 27 28 29 30 31 32 33 34 35 36 37 38 39 40 41 42 43 44 45 46 47 48 49 50
000
ASUS43 KLMK 131810
RWRKY
KENTUCKY REGIONAL WEATHER ROUNDUP
NATIONAL WEATHER SERVICE LOUISVILLE KY
200 PM EDT SUN JUL 13 2014

NOTE "FAIR" INDICATES FEW OR NO CLOUDS BELOW 12,000 FEET
WITH NO SIGNIFICANT WEATHER AND/OR OBSTRUCTIONS TO VISIBILITY.

KYZ001>023-026-027-061>063-070>075-131900-
WESTERN AND SOUTH CENTRAL KENTUCKY

CITY           SKY/WX    TMP DP  RH WIND       PRES   REMARKS
PADUCAH        MOSUNNY   92  76  59 SW13      30.01F HX 104
HENDERSON      MOSUNNY   90  73  58 SW9G17    29.96F HX  98
OWENSBORO      MOSUNNY   93  73  52 SW17      29.98F HX 101
HOPKINSVILLE   MOSUNNY   92  73  52 SW15      30.04F HX 100
BOWLING GREEN  MOSUNNY   90  71  53 W12       30.03F HX  96
GLASGOW        LGT RAIN  82  72  69 S6        30.04F
$$

KYZ024-025-028>034-038-045-046-053-131900-
NORTH CENTRAL KENTUCKY

CITY           SKY/WX    TMP DP  RH WIND       PRES   REMARKS
LOUISVILLE/SDF PTSUNNY   93  71  48 W14G25    29.97F HX 100
LOUISVILLE/LOU MOSUNNY   92  71  50 SW13G21   29.98F HX  98
FORT KNOX      MOSUNNY   89  74  61 SW10      29.99F HX  98
$$

KYZ035>037-039>044-047>052-055>060-089>105-131900-
NORTHEAST KENTUCKY

CITY           SKY/WX    TMP DP  RH WIND       PRES   REMARKS
LEXINGTON      PTSUNNY   93  70  46 SW14      30.02F HX  99
COVINGTON      PTSUNNY   89  72  56 SW10      29.96F HX  96
FRANKFORT      MOSUNNY   91  70  49 SW14G22   29.99F HX  96
$$

KYZ054-064>069-076>088-106>120-131900-
SOUTHEAST KENTUCKY

CITY           SKY/WX    TMP DP  RH WIND       PRES   REMARKS
JACKSON        MOSUNNY   89  66  46 VRB3      30.07F HX  91
LONDON         PTSUNNY   91  66  43 W12G20    30.08F HX  93
SOMERSET       SUNNY     88  61  40 W14       30.07F
MIDDLESBORO    PTSUNNY   83  73  70 N5        30.11F
MONTICELLO     CLEAR     90  70  51 SW3       30.07F HX  95
$$




USA.gov is the U.S. government's official web portal to all federal, state and local government web resources and services.